Location: Unspecified
(48.8656°N, 0.0000°E)
Time: 11:17:30
(UTC+00:00)

Altair - Visible Passes

Search period start: 14 October 2019 00:00
Search period end: 24 October 2019 00:00
Orbit: 1501 x 1683 km, 47.2° (Epoch: 14 October)

Date Brightness Start Highest point End Pass type
(mag) Time Alt. Az. Time Alt. Az. Time Alt. Az.
14 Oct 8.7 19:07:31 10° WNW 19:16:27 38° SW 19:25:25 10° SSE visible
14 Oct 9.7 21:17:50 10° WSW 21:18:55 10° WSW 21:20:00 10° SW visible
15 Oct 8.7 18:42:16 10° WNW 18:51:21 40° SW 19:00:29 10° SSE visible
15 Oct 9.7 20:50:46 10° WSW 20:53:56 12° WSW 20:57:06 10° SW visible
16 Oct 8.6 18:17:03 10° WNW 18:26:14 43° SW 18:35:31 10° SSE visible
16 Oct 9.6 20:24:40 10° W 20:28:56 13° WSW 20:33:13 10° SSW visible
17 Oct 8.6 17:51:49 10° WNW 18:01:07 45° SW 18:10:32 10° SSE visible
17 Oct 9.6 19:58:51 10° W 20:03:56 15° SW 20:09:03 10° SSW visible
18 Oct 8.6 17:26:36 10° WNW 17:36:00 48° SW 17:45:31 10° SE visible
18 Oct 9.6 19:33:12 10° W 19:38:55 17° SW 19:44:42 10° SSW visible
19 Oct 9.7 19:07:38 10° W 19:13:55 19° SW 19:20:13 10° SSW visible
20 Oct 9.7 18:42:09 10° W 18:48:53 21° SW 18:55:40 10° S visible
21 Oct 9.7 18:16:43 10° W 18:23:51 22° SW 18:31:02 10° S visible
22 Oct 9.7 17:51:21 10° W 17:58:47 24° SW 18:06:20 10° S visible
23 Oct 9.7 17:26:00 10° W 17:33:45 26° SW 17:41:36 10° S visible
